PRIVATE WETTERSTATION BILLIGHEIM-ALLFELD                       ZURCK
Wetterdaten: Sonntag, 03.07.2016
Datum Zeit Temp. A. Temp. A. min Temp. A. max Feuchte A. Luftdruck Regen Wind Richtung Richtung Sonnenschein ET Solar Taupunkt Windchill Windben Empfang
03.07.2016 00:00 13,0 C 13,0 C 13,3 C 87 % 1019,5 hPa 0,0 l/m 0,0 km/h (0 Bft) N 0 0 min 0,000 mm 0 W/m 10,9 C 13,0 C 0,0 km/h (0 Bft) 97 %
03.07.2016 00:10 12,7 C 12,7 C 13,0 C 88 % 1019,5 hPa 0,0 l/m 0,0 km/h (0 Bft) N 0 0 min 0,000 mm 0 W/m 10,8 C 12,7 C 0,0 km/h (0 Bft) 96 %
03.07.2016 00:20 12,5 C 12,5 C 12,7 C 88 % 1019,5 hPa 0,0 l/m 0,0 km/h (0 Bft) N 0 0 min 0,000 mm 0 W/m 10,6 C 12,5 C 0,0 km/h (0 Bft) 98 %
03.07.2016 00:30 12,3 C 12,3 C 12,5 C 88 % 1019,4 hPa 0,0 l/m 0,0 km/h (0 Bft) N 0 0 min 0,000 mm 0 W/m 10,4 C 12,3 C 0,0 km/h (0 Bft) 97 %
03.07.2016 00:40 12,1 C 12,1 C 12,3 C 88 % 1019,5 hPa 0,0 l/m 0,0 km/h (0 Bft) N 0 0 min 0,000 mm 0 W/m 10,2 C 12,1 C 0,0 km/h (0 Bft) 98 %
03.07.2016 00:50 11,8 C 11,8 C 12,1 C 89 % 1019,6 hPa 0,0 l/m 0,0 km/h (0 Bft) N 0 0 min 0,000 mm 0 W/m 10,0 C 11,8 C 0,0 km/h (0 Bft) 97 %
03.07.2016 01:00 11,6 C 11,6 C 11,8 C 89 % 1019,8 hPa 0,0 l/m 0,0 km/h (0 Bft) N 0 0 min 0,000 mm 0 W/m 9,8 C 11,6 C 0,0 km/h (0 Bft) 98 %
03.07.2016 01:10 11,6 C 11,5 C 11,6 C 89 % 1019,7 hPa 0,0 l/m 0,0 km/h (0 Bft) SW 225 0 min 0,000 mm 0 W/m 9,8 C 11,6 C 1,6 km/h (1 Bft) 98 %
03.07.2016 01:20 11,8 C 11,6 C 11,8 C 90 % 1019,7 hPa 0,0 l/m 0,0 km/h (0 Bft) N 0 0 min 0,000 mm 0 W/m 10,2 C 11,8 C 0,0 km/h (0 Bft) 97 %
03.07.2016 01:30 12,1 C 11,8 C 12,1 C 90 % 1019,7 hPa 0,0 l/m 0,0 km/h (0 Bft) S 180 0 min 0,000 mm 0 W/m 10,5 C 12,1 C 1,6 km/h (1 Bft) 97 %
03.07.2016 01:40 12,3 C 12,1 C 12,3 C 90 % 1019,8 hPa 0,0 l/m 0,0 km/h (0 Bft) N 0 0 min 0,000 mm 0 W/m 10,7 C 12,3 C 0,0 km/h (0 Bft) 96 %
03.07.2016 01:50 12,3 C 12,3 C 12,3 C 90 % 1019,8 hPa 0,0 l/m 0,0 km/h (0 Bft) N 0 0 min 0,000 mm 0 W/m 10,7 C 12,3 C 0,0 km/h (0 Bft) 98 %
03.07.2016 02:00 12,2 C 12,2 C 12,3 C 90 % 1019,8 hPa 0,0 l/m 0,0 km/h (0 Bft) N 0 0 min 0,000 mm 0 W/m 10,6 C 12,2 C 0,0 km/h (0 Bft) 97 %
03.07.2016 02:10 12,3 C 12,2 C 12,3 C 90 % 1019,9 hPa 0,0 l/m 0,0 km/h (0 Bft) S 180 0 min 0,000 mm 0 W/m 10,7 C 12,3 C 1,6 km/h (1 Bft) 98 %
03.07.2016 02:20 12,4 C 12,3 C 12,4 C 90 % 1019,8 hPa 0,0 l/m 0,0 km/h (0 Bft) S-SO 157 0 min 0,000 mm 0 W/m 10,8 C 12,4 C 1,6 km/h (1 Bft) 97 %
03.07.2016 02:30 12,3 C 12,3 C 12,4 C 90 % 1019,8 hPa 0,0 l/m 0,0 km/h (0 Bft) S-SO 157 0 min 0,000 mm 0 W/m 10,7 C 12,3 C 1,6 km/h (1 Bft) 98 %
03.07.2016 02:40 12,3 C 12,3 C 12,3 C 90 % 1019,8 hPa 0,0 l/m 1,6 km/h (1 Bft) S-SO 157 0 min 0,000 mm 0 W/m 10,7 C 12,3 C 4,8 km/h (1 Bft) 97 %
03.07.2016 02:50 12,3 C 12,3 C 12,3 C 90 % 1019,9 hPa 0,0 l/m 0,0 km/h (0 Bft) S-SO 157 0 min 0,000 mm 0 W/m 10,7 C 12,3 C 4,8 km/h (1 Bft) 98 %
03.07.2016 03:00 12,2 C 12,2 C 12,3 C 89 % 1019,8 hPa 0,0 l/m 0,0 km/h (0 Bft) S-SO 157 0 min 0,000 mm 0 W/m 10,4 C 12,2 C 1,6 km/h (1 Bft) 98 %
03.07.2016 03:10 12,1 C 12,1 C 12,2 C 90 % 1019,9 hPa 0,0 l/m 0,0 km/h (0 Bft) S-SO 157 0 min 0,000 mm 0 W/m 10,5 C 12,1 C 1,6 km/h (1 Bft) 97 %
03.07.2016 03:20 12,0 C 12,0 C 12,1 C 90 % 1019,7 hPa 0,0 l/m 0,0 km/h (0 Bft) N 0 0 min 0,000 mm 0 W/m 10,4 C 12,0 C 0,0 km/h (0 Bft) 96 %
03.07.2016 03:30 11,9 C 11,9 C 12,0 C 90 % 1019,7 hPa 0,0 l/m 0,0 km/h (0 Bft) N 0 0 min 0,000 mm 0 W/m 10,3 C 11,9 C 0,0 km/h (0 Bft) 89 %
03.07.2016 03:40 11,7 C 11,7 C 11,9 C 90 % 1019,8 hPa 0,0 l/m 0,0 km/h (0 Bft) S-SO 157 0 min 0,000 mm 0 W/m 10,1 C 11,7 C 1,6 km/h (1 Bft) 97 %
03.07.2016 03:50 11,7 C 11,7 C 11,8 C 90 % 1019,7 hPa 0,0 l/m 3,2 km/h (1 Bft) SO 135 0 min 0,000 mm 0 W/m 10,1 C 11,7 C 8,0 km/h (2 Bft) 97 %
03.07.2016 04:00 11,6 C 11,6 C 11,7 C 90 % 1019,7 hPa 0,0 l/m 0,0 km/h (0 Bft) SO 135 0 min 0,000 mm 0 W/m 10,0 C 11,6 C 1,6 km/h (1 Bft) 97 %
03.07.2016 04:10 11,6 C 11,6 C 11,6 C 90 % 1019,7 hPa 0,0 l/m 0,0 km/h (0 Bft) SO 135 0 min 0,000 mm 0 W/m 10,0 C 11,6 C 1,6 km/h (1 Bft) 97 %
03.07.2016 04:20 11,5 C 11,5 C 11,6 C 90 % 1019,7 hPa 0,0 l/m 0,0 km/h (0 Bft) SO 135 0 min 0,000 mm 0 W/m 9,9 C 11,5 C 1,6 km/h (1 Bft) 97 %
03.07.2016 04:30 11,3 C 11,3 C 11,5 C 90 % 1019,7 hPa 0,0 l/m 0,0 km/h (0 Bft) N 0 0 min 0,000 mm 0 W/m 9,7 C 11,3 C 0,0 km/h (0 Bft) 97 %
03.07.2016 04:40 11,2 C 11,2 C 11,3 C 90 % 1019,8 hPa 0,0 l/m 0,0 km/h (0 Bft) SO 135 0 min 0,000 mm 0 W/m 9,6 C 11,2 C 1,6 km/h (1 Bft) 98 %
03.07.2016 04:50 11,1 C 11,1 C 11,2 C 90 % 1019,8 hPa 0,0 l/m 0,0 km/h (0 Bft) N 0 0 min 0,000 mm 0 W/m 9,5 C 11,1 C 0,0 km/h (0 Bft) 98 %
03.07.2016 05:00 11,1 C 11,1 C 11,1 C 90 % 1019,8 hPa 0,0 l/m 0,0 km/h (0 Bft) SO 135 0 min 0,000 mm 0 W/m 9,5 C 11,1 C 1,6 km/h (1 Bft) 98 %
03.07.2016 05:10 10,9 C 10,9 C 11,1 C 90 % 1019,9 hPa 0,0 l/m 0,0 km/h (0 Bft) SO 135 0 min 0,000 mm 0 W/m 9,3 C 10,9 C 1,6 km/h (1 Bft) 96 %
03.07.2016 05:20 10,9 C 10,9 C 10,9 C 90 % 1019,9 hPa 0,0 l/m 0,0 km/h (0 Bft) SO 135 0 min 0,000 mm 0 W/m 9,3 C 10,9 C 1,6 km/h (1 Bft) 98 %
03.07.2016 05:30 10,9 C 10,9 C 10,9 C 90 % 1020,0 hPa 0,0 l/m 0,0 km/h (0 Bft) N 0 0 min 0,000 mm 5 W/m 9,3 C 10,9 C 0,0 km/h (0 Bft) 97 %
03.07.2016 05:40 11,0 C 10,9 C 11,0 C 90 % 1020,0 hPa 0,0 l/m 0,0 km/h (0 Bft) SO 135 0 min 0,000 mm 11 W/m 9,4 C 11,0 C 1,6 km/h (1 Bft) 97 %
03.07.2016 05:50 11,0 C 11,0 C 11,0 C 90 % 1019,9 hPa 0,0 l/m 0,0 km/h (0 Bft) SO 135 0 min 0,000 mm 14 W/m 9,4 C 11,0 C 1,6 km/h (1 Bft) 97 %
03.07.2016 06:00 11,0 C 11,0 C 11,0 C 90 % 1019,9 hPa 0,0 l/m 0,0 km/h (0 Bft) SO 135 0 min 0,000 mm 23 W/m 9,4 C 11,0 C 1,6 km/h (1 Bft) 98 %
03.07.2016 06:10 11,1 C 11,0 C 11,1 C 90 % 1019,9 hPa 0,0 l/m 0,0 km/h (0 Bft) SO 135 0 min 0,000 mm 26 W/m 9,5 C 11,1 C 1,6 km/h (1 Bft) 98 %
03.07.2016 06:20 11,2 C 11,1 C 11,2 C 90 % 1019,9 hPa 0,0 l/m 0,0 km/h (0 Bft) SO 135 0 min 0,000 mm 32 W/m 9,6 C 11,2 C 4,8 km/h (1 Bft) 98 %
03.07.2016 06:30 11,3 C 11,2 C 11,3 C 90 % 1020,2 hPa 0,0 l/m 1,6 km/h (1 Bft) SO 135 0 min 0,000 mm 44 W/m 9,7 C 11,3 C 6,4 km/h (2 Bft) 97 %
03.07.2016 06:40 11,3 C 11,3 C 11,4 C 90 % 1020,2 hPa 0,0 l/m 0,0 km/h (0 Bft) SO 135 0 min 0,000 mm 42 W/m 9,7 C 11,3 C 1,6 km/h (1 Bft) 98 %
03.07.2016 06:50 11,4 C 11,3 C 11,4 C 90 % 1020,1 hPa 0,0 l/m 0,0 km/h (0 Bft) N 0 0 min 0,000 mm 58 W/m 9,8 C 11,4 C 0,0 km/h (0 Bft) 97 %
03.07.2016 07:00 11,5 C 11,4 C 11,5 C 90 % 1020,2 hPa 0,0 l/m 0,0 km/h (0 Bft) N 0 0 min 0,025 mm 56 W/m 9,9 C 11,5 C 0,0 km/h (0 Bft) 98 %
03.07.2016 07:10 11,7 C 11,5 C 11,7 C 90 % 1020,2 hPa 0,0 l/m 0,0 km/h (0 Bft) N 0 0 min 0,000 mm 56 W/m 10,1 C 11,7 C 0,0 km/h (0 Bft) 97 %
03.07.2016 07:20 11,7 C 11,7 C 11,7 C 90 % 1020,3 hPa 0,0 l/m 0,0 km/h (0 Bft) S-SO 157 0 min 0,000 mm 51 W/m 10,1 C 11,7 C 4,8 km/h (1 Bft) 98 %
03.07.2016 07:30 11,8 C 11,7 C 11,8 C 90 % 1020,4 hPa 0,0 l/m 0,0 km/h (0 Bft) S-SO 157 0 min 0,000 mm 72 W/m 10,2 C 11,8 C 4,8 km/h (1 Bft) 98 %
03.07.2016 07:40 11,9 C 11,8 C 11,9 C 90 % 1020,6 hPa 0,0 l/m 0,0 km/h (0 Bft) S-SO 157 0 min 0,000 mm 84 W/m 10,3 C 11,9 C 1,6 km/h (1 Bft) 97 %
03.07.2016 07:50 12,1 C 11,9 C 12,1 C 90 % 1020,6 hPa 0,0 l/m 0,0 km/h (0 Bft) S-SO 157 0 min 0,000 mm 114 W/m 10,5 C 12,1 C 1,6 km/h (1 Bft) 98 %
03.07.2016 08:00 12,2 C 12,1 C 12,2 C 90 % 1020,6 hPa 0,0 l/m 0,0 km/h (0 Bft) S 180 0 min 0,025 mm 134 W/m 10,6 C 12,2 C 6,4 km/h (2 Bft) 98 %
03.07.2016 08:10 12,4 C 12,2 C 12,4 C 90 % 1020,6 hPa 0,0 l/m 3,2 km/h (1 Bft) S 180 0 min 0,000 mm 148 W/m 10,8 C 12,4 C 9,7 km/h (2 Bft) 98 %
03.07.2016 08:20 12,6 C 12,4 C 12,6 C 90 % 1020,7 hPa 0,0 l/m 0,0 km/h (0 Bft) S 180 10 min 0,000 mm 153 W/m 11,0 C 12,6 C 6,4 km/h (2 Bft) 96 %
03.07.2016 08:30 12,7 C 12,6 C 12,7 C 90 % 1020,6 hPa 0,0 l/m 1,6 km/h (1 Bft) S 180 10 min 0,000 mm 195 W/m 11,1 C 12,7 C 8,0 km/h (2 Bft) 97 %
03.07.2016 08:40 13,0 C 12,7 C 13,0 C 90 % 1020,6 hPa 0,0 l/m 4,8 km/h (1 Bft) S-SO 157 10 min 0,000 mm 276 W/m 11,4 C 13,0 C 8,0 km/h (2 Bft) 98 %
03.07.2016 08:50 13,3 C 13,0 C 13,3 C 89 % 1020,7 hPa 0,0 l/m 1,6 km/h (1 Bft) S 180 10 min 0,000 mm 313 W/m 11,5 C 13,3 C 9,7 km/h (2 Bft) 96 %
03.07.2016 09:00 13,7 C 13,3 C 13,7 C 89 % 1020,7 hPa 0,0 l/m 0,0 km/h (0 Bft) S 180 10 min 0,102 mm 388 W/m 11,9 C 13,7 C 6,4 km/h (2 Bft) 98 %
03.07.2016 09:10 14,4 C 13,7 C 14,4 C 86 % 1020,8 hPa 0,0 l/m 0,0 km/h (0 Bft) S 180 10 min 0,000 mm 682 W/m 12,1 C 14,4 C 1,6 km/h (1 Bft) 97 %
03.07.2016 09:20 15,1 C 14,4 C 15,1 C 83 % 1020,7 hPa 0,0 l/m 0,0 km/h (0 Bft) S 180 10 min 0,000 mm 673 W/m 12,2 C 15,1 C 6,4 km/h (2 Bft) 98 %
03.07.2016 09:30 15,6 C 15,1 C 15,6 C 82 % 1020,7 hPa 0,0 l/m 0,0 km/h (0 Bft) S 180 10 min 0,000 mm 538 W/m 12,5 C 15,6 C 11,3 km/h (2 Bft) 98 %
03.07.2016 09:40 15,9 C 15,7 C 16,1 C 81 % 1020,8 hPa 0,0 l/m 1,6 km/h (1 Bft) S-SW 202 10 min 0,000 mm 759 W/m 12,6 C 15,9 C 11,3 km/h (2 Bft) 98 %
03.07.2016 09:50 16,2 C 15,9 C 16,2 C 80 % 1020,8 hPa 0,0 l/m 1,6 km/h (1 Bft) S-SW 202 10 min 0,000 mm 459 W/m 12,7 C 16,2 C 11,3 km/h (2 Bft) 98 %
03.07.2016 10:00 16,8 C 16,2 C 16,8 C 79 % 1020,8 hPa 0,0 l/m 3,2 km/h (1 Bft) S-SW 202 10 min 0,279 mm 846 W/m 13,1 C 16,8 C 14,5 km/h (3 Bft) 97 %
03.07.2016 10:10 17,3 C 16,8 C 17,3 C 79 % 1020,8 hPa 0,0 l/m 1,6 km/h (1 Bft) SW 225 10 min 0,000 mm 649 W/m 13,6 C 17,3 C 14,5 km/h (3 Bft) 98 %
03.07.2016 10:20 17,4 C 17,3 C 17,4 C 75 % 1020,8 hPa 0,0 l/m 6,4 km/h (2 Bft) S-SO 157 10 min 0,000 mm 577 W/m 12,9 C 17,4 C 16,1 km/h (3 Bft) 98 %
03.07.2016 10:30 17,1 C 17,1 C 17,4 C 77 % 1020,8 hPa 0,0 l/m 3,2 km/h (1 Bft) S-SW 202 10 min 0,000 mm 526 W/m 13,0 C 17,1 C 16,1 km/h (3 Bft) 98 %
03.07.2016 10:40 17,3 C 17,1 C 17,3 C 77 % 1020,9 hPa 0,0 l/m 4,8 km/h (1 Bft) S-SW 202 10 min 0,000 mm 441 W/m 13,2 C 17,3 C 12,9 km/h (3 Bft) 97 %
03.07.2016 10:50 17,3 C 17,2 C 17,3 C 79 % 1020,8 hPa 0,0 l/m 3,2 km/h (1 Bft) SW 225 10 min 0,000 mm 608 W/m 13,6 C 17,3 C 11,3 km/h (2 Bft) 97 %
03.07.2016 11:00 17,7 C 17,3 C 17,7 C 78 % 1020,7 hPa 0,0 l/m 1,6 km/h (1 Bft) S-SW 202 10 min 0,279 mm 490 W/m 13,8 C 17,7 C 9,7 km/h (2 Bft) 97 %
03.07.2016 11:10 17,9 C 17,7 C 17,9 C 74 % 1020,7 hPa 0,0 l/m 1,6 km/h (1 Bft) S-SW 202 10 min 0,000 mm 510 W/m 13,2 C 17,9 C 17,7 km/h (3 Bft) 97 %
03.07.2016 11:20 18,0 C 17,9 C 18,1 C 73 % 1020,7 hPa 0,0 l/m 4,8 km/h (1 Bft) S-SW 202 10 min 0,000 mm 473 W/m 13,1 C 18,0 C 16,1 km/h (3 Bft) 98 %
03.07.2016 11:30 18,0 C 18,0 C 18,1 C 71 % 1020,7 hPa 0,0 l/m 4,8 km/h (1 Bft) W-NW 292 10 min 0,000 mm 394 W/m 12,7 C 18,0 C 14,5 km/h (3 Bft) 97 %
03.07.2016 11:40 17,9 C 17,9 C 18,0 C 71 % 1020,7 hPa 0,0 l/m 3,2 km/h (1 Bft) W-NW 292 10 min 0,000 mm 322 W/m 12,6 C 17,9 C 11,3 km/h (2 Bft) 98 %
03.07.2016 11:50 17,7 C 17,7 C 17,9 C 72 % 1020,5 hPa 0,0 l/m 1,6 km/h (1 Bft) W-SW 247 10 min 0,000 mm 330 W/m 12,6 C 17,7 C 14,5 km/h (3 Bft) 98 %
03.07.2016 12:00 17,7 C 17,7 C 17,7 C 73 % 1020,7 hPa 0,0 l/m 3,2 km/h (1 Bft) NW 315 10 min 0,203 mm 297 W/m 12,8 C 17,7 C 9,7 km/h (2 Bft) 97 %
03.07.2016 12:10 17,8 C 17,7 C 17,8 C 75 % 1020,7 hPa 0,0 l/m 1,6 km/h (1 Bft) W-NW 292 10 min 0,000 mm 573 W/m 13,3 C 17,8 C 8,0 km/h (2 Bft) 98 %
03.07.2016 12:20 18,3 C 17,8 C 18,3 C 70 % 1020,5 hPa 0,0 l/m 1,6 km/h (1 Bft) W-NW 292 10 min 0,000 mm 1007 W/m 12,7 C 18,3 C 11,3 km/h (2 Bft) 97 %
03.07.2016 12:30 18,8 C 18,3 C 18,8 C 71 % 1020,6 hPa 0,0 l/m 3,2 km/h (1 Bft) NW 315 10 min 0,000 mm 766 W/m 13,4 C 18,8 C 14,5 km/h (3 Bft) 98 %
03.07.2016 12:40 19,1 C 18,8 C 19,1 C 69 % 1020,5 hPa 0,0 l/m 3,2 km/h (1 Bft) W-NW 292 10 min 0,000 mm 640 W/m 13,3 C 19,1 C 11,3 km/h (2 Bft) 97 %
03.07.2016 12:50 18,7 C 18,7 C 19,1 C 68 % 1020,5 hPa 0,0 l/m 8,0 km/h (2 Bft) S-SW 202 10 min 0,000 mm 503 W/m 12,7 C 18,0 C 25,7 km/h (4 Bft) 97 %
03.07.2016 13:00 18,3 C 18,3 C 18,7 C 70 % 1020,5 hPa 0,0 l/m 4,8 km/h (1 Bft) W 270 10 min 0,305 mm 515 W/m 12,7 C 18,3 C 20,9 km/h (4 Bft) 97 %
03.07.2016 13:10 18,4 C 18,2 C 18,4 C 69 % 1020,3 hPa 0,0 l/m 3,2 km/h (1 Bft) W 270 10 min 0,000 mm 492 W/m 12,6 C 18,4 C 20,9 km/h (4 Bft) 97 %
03.07.2016 13:20 18,3 C 18,3 C 18,4 C 65 % 1020,2 hPa 0,0 l/m 8,0 km/h (2 Bft) W 270 10 min 0,000 mm 397 W/m 11,6 C 17,6 C 17,7 km/h (3 Bft) 98 %
03.07.2016 13:30 18,4 C 18,2 C 18,4 C 64 % 1020,3 hPa 0,0 l/m 6,4 km/h (2 Bft) W 270 10 min 0,000 mm 526 W/m 11,5 C 18,4 C 17,7 km/h (3 Bft) 97 %
03.07.2016 13:40 18,8 C 18,4 C 18,8 C 64 % 1020,1 hPa 0,0 l/m 3,2 km/h (1 Bft) W-SW 247 10 min 0,000 mm 677 W/m 11,8 C 18,8 C 16,1 km/h (3 Bft) 97 %
03.07.2016 13:50 19,1 C 18,8 C 19,1 C 64 % 1020,2 hPa 0,0 l/m 1,6 km/h (1 Bft) W 270 10 min 0,000 mm 561 W/m 12,1 C 19,1 C 9,7 km/h (2 Bft) 97 %
03.07.2016 14:00 19,3 C 19,1 C 19,3 C 61 % 1020,1 hPa 0,0 l/m 3,2 km/h (1 Bft) W-NW 292 10 min 0,279 mm 664 W/m 11,6 C 19,3 C 12,9 km/h (3 Bft) 96 %
03.07.2016 14:10 19,4 C 19,3 C 19,4 C 61 % 1020,0 hPa 0,0 l/m 6,4 km/h (2 Bft) W-NW 292 10 min 0,000 mm 721 W/m 11,7 C 19,4 C 19,3 km/h (3 Bft) 97 %
03.07.2016 14:20 19,4 C 19,4 C 19,4 C 62 % 1020,0 hPa 0,0 l/m 9,7 km/h (2 Bft) W-NW 292 10 min 0,000 mm 613 W/m 11,9 C 18,1 C 22,5 km/h (4 Bft) 97 %
03.07.2016 14:30 19,5 C 19,4 C 19,5 C 58 % 1020,0 hPa 0,0 l/m 3,6 km/h (1 Bft) W-SW 253 10 min 0,002 mm 605 W/m 11,0 C 19,5 C 8,0 km/h (2 Bft) 99 %
03.07.2016 14:40 20,0 C 19,5 C 20,0 C 59 % 1019,9 hPa 0,0 l/m 3,1 km/h (1 Bft) SW 214 10 min 0,000 mm 1042 W/m 11,7 C 20,0 C 12,9 km/h (3 Bft) 100 %
03.07.2016 14:50 20,6 C 20,0 C 20,6 C 60 % 1019,8 hPa 0,0 l/m 4,7 km/h (1 Bft) W-SW 249 10 min 0,000 mm 162 W/m 12,6 C 20,6 C 16,1 km/h (3 Bft) 100 %
03.07.2016 15:00 19,8 C 19,8 C 20,6 C 57 % 1019,9 hPa 0,0 l/m 8,2 km/h (2 Bft) W-SW 257 0 min 0,000 mm 81 W/m 11,0 C 19,1 C 20,9 km/h (4 Bft) 100 %
03.07.2016 15:10 18,9 C 18,9 C 19,8 C 61 % 1020,1 hPa 0,0 l/m 6,6 km/h (2 Bft) SW 221 0 min 0,406 mm 46 W/m 11,2 C 18,8 C 25,7 km/h (4 Bft) 100 %
03.07.2016 15:20 17,9 C 17,9 C 18,9 C 63 % 1020,2 hPa 0,0 l/m 11,2 km/h (2 Bft) W 267 0 min 0,000 mm 35 W/m 10,8 C 15,9 C 25,7 km/h (4 Bft) 100 %
03.07.2016 15:30 17,4 C 17,4 C 17,9 C 67 % 1020,3 hPa 0,0 l/m 8,5 km/h (2 Bft) W 267 0 min 0,000 mm 42 W/m 11,2 C 16,4 C 20,9 km/h (4 Bft) 91 %
03.07.2016 15:40 17,1 C 17,1 C 17,4 C 68 % 1020,1 hPa 0,0 l/m 2,6 km/h (1 Bft) W 278 0 min 0,000 mm 67 W/m 11,1 C 17,1 C 16,1 km/h (3 Bft) 100 %
03.07.2016 15:50 16,9 C 16,9 C 17,1 C 69 % 1020,0 hPa 0,0 l/m 0,2 km/h (0 Bft) W-NW 283 0 min 0,000 mm 97 W/m 11,2 C 16,9 C 4,8 km/h (1 Bft) 100 %
03.07.2016 16:00 16,9 C 16,9 C 16,9 C 72 % 1020,1 hPa 0,0 l/m 0,7 km/h (0 Bft) S-SW 211 0 min 0,076 mm 114 W/m 11,8 C 16,9 C 9,7 km/h (2 Bft) 100 %
03.07.2016 16:10 16,9 C 16,9 C 16,9 C 72 % 1020,2 hPa 0,0 l/m 0,0 km/h (0 Bft) SW 236 0 min 0,000 mm 114 W/m 11,8 C 16,9 C 1,6 km/h (1 Bft) 99 %
03.07.2016 16:20 17,0 C 16,9 C 17,0 C 71 % 1020,3 hPa 0,0 l/m 1,5 km/h (1 Bft) SW 236 0 min 0,000 mm 97 W/m 11,7 C 17,0 C 8,0 km/h (2 Bft) 100 %
03.07.2016 16:30 16,9 C 16,9 C 17,0 C 72 % 1020,3 hPa 0,0 l/m 2,0 km/h (1 Bft) W-SW 250 0 min 0,000 mm 88 W/m 11,8 C 16,9 C 9,7 km/h (2 Bft) 100 %
03.07.2016 16:40 16,9 C 16,9 C 17,0 C 73 % 1020,3 hPa 0,0 l/m 2,1 km/h (1 Bft) W-SW 252 0 min 0,000 mm 104 W/m 12,0 C 16,9 C 11,3 km/h (2 Bft) 100 %
03.07.2016 16:50 16,9 C 16,9 C 16,9 C 75 % 1020,4 hPa 0,0 l/m 1,6 km/h (1 Bft) W 279 10 min 0,000 mm 169 W/m 12,4 C 16,9 C 9,7 km/h (2 Bft) 99 %
03.07.2016 17:00 17,1 C 16,9 C 17,1 C 74 % 1020,4 hPa 0,0 l/m 0,1 km/h (0 Bft) NW 306 0 min 0,076 mm 100 W/m 12,4 C 17,1 C 4,8 km/h (1 Bft) 99 %
03.07.2016 17:10 17,1 C 17,1 C 17,1 C 74 % 1020,5 hPa 0,0 l/m 1,9 km/h (1 Bft) W 274 0 min 0,000 mm 69 W/m 12,4 C 17,1 C 11,3 km/h (2 Bft) 100 %
03.07.2016 17:20 16,9 C 16,9 C 17,1 C 76 % 1020,5 hPa 0,0 l/m 2,3 km/h (1 Bft) NW 315 0 min 0,000 mm 56 W/m 12,6 C 16,9 C 9,7 km/h (2 Bft) 99 %
03.07.2016 17:30 16,7 C 16,7 C 16,9 C 76 % 1020,5 hPa 0,0 l/m 1,3 km/h (1 Bft) N-NW 333 0 min 0,000 mm 56 W/m 12,4 C 16,7 C 8,0 km/h (2 Bft) 99 %
03.07.2016 17:40 16,5 C 16,5 C 16,7 C 75 % 1020,5 hPa 0,0 l/m 0,0 km/h (0 Bft) NW 322 0 min 0,000 mm 81 W/m 12,1 C 16,5 C 0,0 km/h (0 Bft) 99 %
03.07.2016 17:50 16,5 C 16,4 C 16,5 C 77 % 1020,5 hPa 0,0 l/m 0,0 km/h (0 Bft) NW 322 0 min 0,000 mm 70 W/m 12,5 C 16,5 C 1,6 km/h (1 Bft) 99 %
03.07.2016 18:00 16,4 C 16,4 C 16,5 C 74 % 1020,6 hPa 0,0 l/m 0,6 km/h (0 Bft) W-NW 285 0 min 0,051 mm 65 W/m 11,8 C 16,4 C 6,4 km/h (2 Bft) 99 %
03.07.2016 18:10 16,4 C 16,4 C 16,4 C 77 % 1020,7 hPa 0,0 l/m 0,3 km/h (0 Bft) W-NW 288 0 min 0,000 mm 69 W/m 12,4 C 16,4 C 6,4 km/h (2 Bft) 100 %
03.07.2016 18:20 16,4 C 16,4 C 16,4 C 76 % 1020,7 hPa 0,0 l/m 0,5 km/h (0 Bft) W-NW 289 0 min 0,000 mm 56 W/m 12,2 C 16,4 C 4,8 km/h (1 Bft) 100 %
03.07.2016 18:30 16,3 C 16,3 C 16,4 C 79 % 1020,7 hPa 0,0 l/m 0,0 km/h (0 Bft) W-NW 289 0 min 0,000 mm 44 W/m 12,6 C 16,3 C 0,0 km/h (0 Bft) 100 %
03.07.2016 18:40 16,3 C 16,3 C 16,3 C 78 % 1020,7 hPa 0,0 l/m 0,0 km/h (0 Bft) W-NW 288 0 min 0,000 mm 56 W/m 12,5 C 16,3 C 0,0 km/h (0 Bft) 100 %
03.07.2016 18:50 16,2 C 16,2 C 16,3 C 77 % 1020,8 hPa 0,0 l/m 0,3 km/h (0 Bft) W-NW 290 0 min 0,000 mm 46 W/m 12,2 C 16,2 C 3,2 km/h (1 Bft) 99 %
03.07.2016 19:00 16,2 C 16,2 C 16,2 C 77 % 1020,8 hPa 0,0 l/m 0,0 km/h (0 Bft) W-NW 290 0 min 0,000 mm 47 W/m 12,2 C 16,2 C 0,0 km/h (0 Bft) 99 %
03.07.2016 19:10 16,1 C 16,1 C 16,2 C 81 % 1020,8 hPa 0,0 l/m 0,0 km/h (0 Bft) W-NW 290 0 min 0,025 mm 53 W/m 12,8 C 16,1 C 1,6 km/h (1 Bft) 97 %
03.07.2016 19:20 16,0 C 16,0 C 16,1 C 79 % 1020,8 hPa 0,0 l/m 1,1 km/h (1 Bft) W-NW 290 0 min 0,001 mm 40 W/m 12,4 C 16,0 C 4,8 km/h (1 Bft) 97 %
03.07.2016 19:30 15,9 C 15,9 C 16,0 C 78 % 1020,8 hPa 0,0 l/m 1,2 km/h (1 Bft) W 267 0 min 0,000 mm 35 W/m 12,1 C 15,9 C 6,4 km/h (2 Bft) 97 %
03.07.2016 19:40 15,9 C 15,9 C 15,9 C 79 % 1020,8 hPa 0,0 l/m 0,0 km/h (0 Bft) S-SW 203 0 min 0,000 mm 40 W/m 12,3 C 15,9 C 1,6 km/h (1 Bft) 97 %
03.07.2016 19:50 15,9 C 15,9 C 15,9 C 82 % 1020,8 hPa 0,0 l/m 0,6 km/h (0 Bft) S-SW 203 0 min 0,000 mm 40 W/m 12,8 C 15,9 C 4,8 km/h (1 Bft) 97 %
03.07.2016 20:00 15,8 C 15,8 C 15,9 C 81 % 1020,9 hPa 0,0 l/m 0,0 km/h (0 Bft) S-SW 204 0 min 0,000 mm 28 W/m 12,5 C 15,8 C 1,6 km/h (1 Bft) 97 %
03.07.2016 20:10 15,8 C 15,8 C 15,8 C 81 % 1021,0 hPa 0,0 l/m 0,1 km/h (0 Bft) S-SW 204 0 min 0,025 mm 25 W/m 12,5 C 15,8 C 3,2 km/h (1 Bft) 98 %
03.07.2016 20:20 15,7 C 15,7 C 15,8 C 81 % 1021,2 hPa 0,0 l/m 0,6 km/h (0 Bft) S-SW 204 0 min 0,000 mm 18 W/m 12,4 C 15,7 C 4,8 km/h (1 Bft) 97 %
03.07.2016 20:30 15,7 C 15,7 C 15,7 C 80 % 1021,2 hPa 0,0 l/m 0,1 km/h (0 Bft) S-SW 209 0 min 0,000 mm 16 W/m 12,3 C 15,7 C 3,2 km/h (1 Bft) 97 %
03.07.2016 20:40 15,6 C 15,6 C 15,7 C 79 % 1021,3 hPa 0,0 l/m 0,4 km/h (0 Bft) SW 225 0 min 0,000 mm 16 W/m 12,0 C 15,6 C 4,8 km/h (1 Bft) 97 %
03.07.2016 20:50 15,6 C 15,6 C 15,6 C 79 % 1021,3 hPa 0,0 l/m 1,0 km/h (0 Bft) SW 226 0 min 0,000 mm 14 W/m 12,0 C 15,6 C 4,8 km/h (1 Bft) 97 %
03.07.2016 21:00 15,5 C 15,5 C 15,6 C 79 % 1021,3 hPa 0,0 l/m 1,3 km/h (1 Bft) SW 218 0 min 0,000 mm 7 W/m 11,9 C 15,5 C 6,4 km/h (2 Bft) 98 %
03.07.2016 21:10 15,4 C 15,4 C 15,5 C 81 % 1021,4 hPa 0,0 l/m 0,0 km/h (0 Bft) SW 225 0 min 0,000 mm 7 W/m 12,2 C 15,4 C 1,6 km/h (1 Bft) 99 %
03.07.2016 21:20 15,2 C 15,2 C 15,4 C 81 % 1021,4 hPa 0,0 l/m 0,0 km/h (0 Bft) N 0 0 min 0,000 mm 0 W/m 12,0 C 15,2 C 0,0 km/h (0 Bft) 99 %
03.07.2016 21:30 15,1 C 15,1 C 15,2 C 82 % 1021,4 hPa 0,0 l/m 0,0 km/h (0 Bft) N 0 0 min 0,000 mm 0 W/m 12,0 C 15,1 C 0,0 km/h (0 Bft) 100 %
03.07.2016 21:40 15,1 C 15,1 C 15,2 C 83 % 1021,4 hPa 0,0 l/m 0,0 km/h (0 Bft) N 0 0 min 0,000 mm 0 W/m 12,2 C 15,1 C 0,0 km/h (0 Bft) 100 %
03.07.2016 21:50 15,1 C 15,1 C 15,1 C 83 % 1021,5 hPa 0,0 l/m 0,0 km/h (0 Bft) SW 225 0 min 0,000 mm 0 W/m 12,2 C 15,1 C 1,6 km/h (1 Bft) 99 %
03.07.2016 22:00 14,9 C 14,9 C 15,1 C 84 % 1021,6 hPa 0,0 l/m 0,0 km/h (0 Bft) N 0 0 min 0,000 mm 0 W/m 12,2 C 14,9 C 0,0 km/h (0 Bft) 100 %
03.07.2016 22:10 14,7 C 14,7 C 14,9 C 84 % 1021,5 hPa 0,0 l/m 0,0 km/h (0 Bft) SW 225 0 min 0,000 mm 0 W/m 12,0 C 14,7 C 3,2 km/h (1 Bft) 100 %
03.07.2016 22:20 14,6 C 14,6 C 14,7 C 84 % 1021,7 hPa 0,0 l/m 0,0 km/h (0 Bft) SW 225 0 min 0,000 mm 0 W/m 11,9 C 14,6 C 1,6 km/h (1 Bft) 100 %
03.07.2016 22:30 14,5 C 14,5 C 14,6 C 85 % 1021,8 hPa 0,0 l/m 0,0 km/h (0 Bft) N 0 0 min 0,000 mm 0 W/m 12,0 C 14,5 C 0,0 km/h (0 Bft) 100 %
03.07.2016 22:40 14,4 C 14,4 C 14,5 C 85 % 1021,8 hPa 0,0 l/m 0,0 km/h (0 Bft) N 0 0 min 0,000 mm 0 W/m 11,9 C 14,4 C 0,0 km/h (0 Bft) 100 %
03.07.2016 22:50 14,3 C 14,3 C 14,4 C 84 % 1021,8 hPa 0,0 l/m 1,6 km/h (1 Bft) S-SW 202 0 min 0,000 mm 0 W/m 11,6 C 14,3 C 4,8 km/h (1 Bft) 100 %
03.07.2016 23:00 14,5 C 14,3 C 14,5 C 84 % 1021,8 hPa 0,0 l/m 0,0 km/h (0 Bft) N 0 0 min 0,025 mm 0 W/m 11,8 C 14,5 C 0,0 km/h (0 Bft) 100 %
03.07.2016 23:10 14,5 C 14,5 C 14,5 C 85 % 1021,9 hPa 0,0 l/m 0,0 km/h (0 Bft) N 0 0 min 0,000 mm 0 W/m 12,0 C 14,5 C 0,0 km/h (0 Bft) 100 %
03.07.2016 23:20 14,4 C 14,4 C 14,5 C 85 % 1021,9 hPa 0,0 l/m 0,0 km/h (0 Bft) N 0 0 min 0,000 mm 0 W/m 11,9 C 14,4 C 0,0 km/h (0 Bft) 100 %
03.07.2016 23:30 14,4 C 14,4 C 14,4 C 86 % 1021,9 hPa 0,0 l/m 0,0 km/h (0 Bft) N 0 0 min 0,000 mm 0 W/m 12,1 C 14,4 C 0,0 km/h (0 Bft) 100 %
03.07.2016 23:40 14,4 C 14,4 C 14,4 C 86 % 1022,0 hPa 0,0 l/m 0,0 km/h (0 Bft) N 0 0 min 0,000 mm 0 W/m 12,1 C 14,4 C 0,0 km/h (0 Bft) 100 %
03.07.2016 23:50 14,3 C 14,3 C 14,4 C 86 % 1022,1 hPa 0,0 l/m 0,0 km/h (0 Bft) N 0 0 min 0,000 mm 0 W/m 12,0 C 14,3 C 0,0 km/h (0 Bft) 100 %
_ Min-Zeit 05:10 05:10 05:20 15:00 00:30 - 00:00 - - - - - 05:10 05:10 00:00 03:30
Minimum _ 10,9 C 10,9 C 10,9 C 57 % 1019,4 hPa - 0,0 km/h (0 Bft) - - - - - 9,3 C 10,9 C 0,0 km/h (0 Bft) 89 %
_ Max-Zeit 14:50 14:50 14:50 01:20 23:50 00:00 15:20 - - 08:20 15:10 14:40 11:00 14:50 12:50 15:00
Maximum _ 20,6 C 20,0 C 20,6 C 90 % 1022,1 hPa 0,0 l/m 11,2 km/h
W (2 Bft)
- - 10 min 0,406 mm 1042 W/m 13,8 C 20,6 C 25,7 km/h
S-SW (4 Bft)
100 %
Durchschnitt _ 14,9 C 14,8 C 15,0 C 81 % 1020,5 hPa #0,0 l/m 1,4 km/h (1 Bft) W - #6:50 h #2,184 mm 258 W/m 11,5 C 14,8 C 6,2 km/h (2 Bft) 98 %
PRIVATE WETTERSTATION BILLIGHEIM-ALLFELD - www.neckar-odenwald-wetter.de - Holger Sonntag